Find Starlink 31647

NORAD ID: 59389 Int'l Des: 2024-062 Owner: SPXS Country: US Constellation: starlink operational
LEOCIRCULAR

Current View

Loading 3D Globe...

About Starlink 31647

Starlink 31647 (NORAD 59389) is a starlink constellation satellite (v2 mini) launched Apr 2, 2024 by SPXS of US. It operates in LEO, CIRCULAR orbit with a mass of 730.00 kg.

Upcoming Passes

Passes for default location (London). Set your location on the main map for personalized predictions.

Altitude History

Loading altitude history...

Two-Line Element Set

1 59389U 24062R 26252.91734336 .00001887 00000-0 66960-4 0 9996
2 59389 53.1575 117.4226 0001285 72.1824 287.9319 15.34400190137912
Epoch: Sep 9, 2026 • Age: 10 hours

Current Status

Altitude 465.3 km
Apogee / Perigee N/A
Velocity 7.64 km/s
Sub-Earth Point 37.62°N, 151.64°E
Launch Date Apr 2, 2024
Age 2.4 years
Type internet

Technical Details

Classification Payload
Mass 730.00 kg
Dry Mass 700.00 kg
Total Mass 730.00 kg
Length 0.30 m
Diameter 4.10 m
Span 29.00 m
Shape Box + pan
Manufacturer SPXS
Bus Type Starlink V2M
Phase Status In Orbit
Owner/State SPXS/US

Most Searched